GFSFLT1_sfc_temp_021.txt.gz
Temp
36 36 36 35 34 34 34 33 33 33 32 32 31 31 30 29 29 28 28 29 29 29 29 29 29 29 28 29 29 27 28 31
35 36 36 35 34 34 34 33 32 33 31 30 30 30 30 29 28 28 28 28 28 28 28 28 27 28 26 26 27 27 28 28
36 35 34 34 34 33 32 32 32 32 30 31 30 30 29 29 28 28 28 28 28 28 28 27 27 27 25 26 27 26 27 28
34 33 33 32 32 32 31 32 32 31 31 30 30 28 28 28 28 27 27 26 26 27 25 26 26 26 26 26 27 27 27 28
31 31 32 31 31 31 31 31 31 30 30 29 28 28 27 27 26 25 25 24 25 25 25 25 26 27 27 28 27 27 28 28
33 32 30 31 31 31 31 31 30 29 29 28 27 27 26 24 24 24 24 24 24 24 23 24 24 27 26 26 25 24 25 26
32 32 32 32 32 32 31 30 30 29 26 26 24 24 23 22 22 22 22 21 21 20 20 19 23 26 26 26 23 24 24 23
33 33 33 32 33 30 29 28 23 22 18 18 20 20 20 19 19 19 18 18 17 17 17 17 17 22 24 24 22 21 20 20
32 32 32 31 30 29 27 24 22 19 16 17 19 16 16 16 15 15 15 14 14 14 13 14 16 20 21 21 20 18 18 18
32 32 30 29 28 25 23 23 21 20 19 17 15 12 13 9 10 12 11 10 9 12 11 9 10 16 18 19 16 16 16 18
31 29 27 25 25 23 20 18 18 19 18 16 14 7 6 9 8 9 6 9 10 9 9 8 7 13 16 18 15 12 14 16
28 27 25 22 21 19 17 16 16 15 14 12 11 6 6 5 6 5 4 6 4 5 6 6 7 8 16 18 16 14 13 14
25 23 21 20 18 17 15 15 12 10 10 8 1 3 5 -5 0 -1 -0 -0 0 1 2 6 8 12 16 18 20 21 16 15
23 20 19 15 14 14 13 12 10 4 3 -3 -1 2 2 -5 -0 -0 -2 -2 0 2 2 4 9 10 15 19 21 22 20 20
17 16 13 11 13 10 10 9 1 1 1 0 -2 -1 -1 3 3 1 -1 -1 1 1 3 6 11 13 15 15 15 18 19 20
17 15 12 10 9 7 8 3 -0 -0 2 -0 -2 -4 -1 1 1 2 4 5 5 9 11 10 10 13 20 20 18 19 20 21
12 10 8 6 5 4 -0 -2 -2 1 2 -1 -1 -1 1 0 0 8 13 15 17 19 17 15 18 20 21 21 23 23 22 14
9 7 4 2 2 3 0 -4 -5 -5 -3 -3 -0 -2 -2 -3 -3 -4 3 12 13 15 16 16 18 19 20 21 20 18 14 3
4 0 -2 -4 -2 2 -4 -4 -4 -10 -5 -8 -5 -6 -7 -6 -5 -3 -4 -4 -1 7 10 14 15 17 18 17 11 0 3 2
-4 -7 -6 -7 -1 -5 -11 -8 -9 -10 -8 -8 -8 -8 -6 -5 -4 -4 -3 -3 -3 -1 4 5 11 14 13 12 -3 -1 -1 0

GFSFLT1_sfc_temp_024.txt.gz
Temp
34 34 35 36 36 35 35 33 32 32 32 31 30 30 29 29 28 28 28 29 28 28 28 27 27 27 26 26 26 26 26 28
34 34 34 34 32 32 32 32 31 31 29 30 29 28 28 28 27 27 27 27 27 27 27 27 26 26 24 24 26 25 25 25
35 34 33 33 33 32 32 32 31 30 29 30 29 29 28 27 27 27 27 27 27 27 26 26 26 25 24 25 24 23 25 26
33 33 33 32 32 32 31 31 31 29 29 29 29 28 27 27 27 27 26 25 25 25 25 25 25 25 25 25 25 25 25 26
31 32 32 32 31 30 30 30 30 29 29 28 27 27 26 26 25 25 24 23 23 23 23 23 23 24 25 26 25 24 25 25
33 32 32 30 30 30 30 30 29 28 28 27 28 26 25 23 22 22 22 22 22 22 21 22 22 26 24 24 23 22 22 23
33 33 32 32 31 32 30 29 29 27 27 27 24 23 21 21 21 21 20 19 19 18 18 17 21 24 25 25 22 21 21 20
33 32 32 31 33 30 31 28 25 23 20 20 20 19 19 18 18 18 16 17 16 16 15 15 16 22 24 24 21 20 19 19
32 31 31 31 30 29 28 25 23 21 18 17 18 15 15 15 14 14 14 13 13 13 12 13 15 20 21 22 20 18 18 18
32 31 29 29 29 26 23 23 22 20 19 17 15 12 12 8 9 11 10 10 8 12 9 8 9 16 19 20 17 16 16 18
31 30 29 28 26 23 21 20 20 19 19 16 13 7 6 9 7 7 4 9 10 9 8 8 6 13 17 19 17 13 15 16
29 29 28 25 21 21 18 18 17 16 14 12 11 6 5 4 5 2 1 6 2 4 5 5 7 7 16 19 18 16 15 15
28 27 25 21 20 19 17 16 13 11 10 9 4 7 5 -5 -3 -4 -5 -3 -2 -1 2 6 8 12 16 20 22 23 18 16
25 24 21 17 18 17 15 12 9 6 6 3 4 5 5 -2 0 -3 -7 -5 -1 2 2 4 9 10 17 21 22 23 20 20
17 17 17 13 15 12 11 9 3 -1 4 5 3 3 3 5 4 -5 -5 -2 -0 0 1 4 8 13 14 15 17 20 20 21
19 19 18 12 10 7 8 5 1 0 4 4 4 2 3 3 1 2 3 3 0 3 6 10 10 12 20 21 19 19 21 19
15 14 10 9 7 3 2 2 1 3 4 4 4 3 2 1 0 8 13 16 18 20 18 15 18 20 22 22 23 22 19 10
13 9 7 5 5 1 -2 -3 -3 -2 4 3 3 0 -1 -3 -3 -4 2 10 13 15 16 17 18 19 20 21 20 14 11 -6
8 3 1 -0 -2 -3 -5 -7 -7 -2 2 -1 -0 -2 -5 -5 -5 -5 -6 -6 -4 5 9 13 15 17 18 17 9 -2 -1 -12
-1 -4 -4 -6 -3 -6 -7 -6 -3 -2 -2 -3 -3 -5 -6 -6 -5 -6 -6 -6 -6 -4 2 3 10 13 13 11 -12 -6 -3 -2

GFSFLT1_sfc_temp_030.txt.gz
Temp
48 48 47 47 46 47 47 45 45 44 45 44 44 43 43 43 42 41 40 41 40 40 40 40 39 39 39 38 38 37 38 38
48 48 47 47 46 46 45 44 43 43 43 42 42 42 43 42 41 41 40 40 39 38 38 37 37 37 37 36 36 34 34 36
48 47 46 45 45 45 45 43 44 43 42 42 42 42 42 41 41 40 39 38 37 36 36 35 35 34 34 33 33 32 32 33
48 47 47 47 44 44 44 44 43 42 42 41 41 41 41 40 39 38 37 37 35 34 33 33 32 32 32 32 32 32 32 31
47 48 48 47 46 45 45 44 42 41 41 40 41 41 40 39 37 36 35 34 33 32 32 31 31 31 32 31 31 31 31 31
46 46 47 45 45 46 45 43 42 40 40 40 40 40 38 36 34 33 32 33 32 30 29 29 29 31 30 30 30 29 29 29
46 45 44 45 45 44 43 43 42 41 39 41 38 35 32 32 30 30 29 28 27 26 25 25 28 25 26 28 28 27 27 26
45 44 45 46 44 42 43 42 37 35 34 33 33 31 31 30 28 27 27 27 25 25 24 23 24 23 25 26 26 26 26 25
45 45 44 44 42 42 40 37 34 33 32 31 31 30 28 26 26 26 25 24 24 23 22 22 23 22 23 24 25 25 25 24
46 45 42 41 40 36 34 34 34 33 32 31 30 27 26 23 24 24 23 22 21 20 19 17 19 19 22 23 23 23 22 24
41 40 41 40 38 33 33 32 32 33 33 31 28 25 23 23 21 22 20 20 20 19 18 16 14 18 20 22 23 21 22 23
39 40 40 37 32 33 32 30 33 30 28 26 25 22 22 21 20 18 17 17 15 14 16 14 14 16 19 21 22 22 22 23
36 37 38 33 31 31 30 33 28 26 24 22 19 20 18 16 16 14 14 12 13 13 15 18 16 16 20 22 24 25 22 22
35 33 34 30 29 30 32 26 22 21 19 17 16 17 15 13 13 14 13 14 16 16 17 17 18 19 19 21 22 24 23 24
29 28 29 28 26 29 25 22 19 19 17 15 13 14 13 15 15 15 15 15 15 15 15 16 17 18 20 21 21 22 24 24
28 29 30 30 27 25 22 19 19 18 16 17 16 13 15 15 17 16 17 17 15 14 14 15 16 18 22 23 22 23 23 18
27 27 29 26 25 20 18 18 18 17 17 18 18 16 16 16 15 17 18 19 20 22 22 21 21 24 23 24 24 24 20 15
27 26 26 23 20 15 14 14 15 19 18 17 15 16 15 14 13 13 15 16 17 18 19 20 21 21 21 22 23 17 14 9
23 20 18 16 14 12 11 11 10 13 11 15 15 15 14 13 12 11 10 9 11 12 12 14 16 19 19 20 18 10 8 5
12 9 10 10 7 7 6 8 8 11 12 11 12 11 10 10 9 8 8 6 6 7 9 9 10 13 16 14 8 5 3 4

GFSFLT1_sfc_temp_033.txt.gz
Temp
51 50 50 50 49 50 50 48 48 48 49 48 47 47 46 46 44 44 42 42 42 42 42 41 41 40 40 38 38 37 37 38
51 51 50 50 48 49 49 48 46 47 47 45 44 45 45 44 43 43 42 42 41 40 40 39 38 37 37 37 36 34 35 36
52 51 49 48 47 47 48 47 46 46 46 44 44 44 43 43 43 42 41 41 39 39 38 37 37 36 35 34 34 33 33 33
51 50 49 49 47 47 47 46 45 46 44 43 42 42 42 42 41 41 40 39 37 37 36 35 35 34 34 34 33 33 32 32
51 51 50 50 49 48 48 48 45 45 43 42 42 42 43 41 40 39 39 37 36 35 34 34 33 33 33 33 32 32 32 32
49 50 52 50 50 49 49 47 46 43 42 42 42 42 42 38 37 36 35 36 35 34 32 32 31 32 33 32 31 30 30 31
49 49 50 50 49 48 48 46 45 42 41 43 40 38 35 34 33 32 31 31 30 29 29 28 31 31 28 28 28 29 28 28
48 47 48 50 48 48 48 46 41 38 36 35 36 33 32 32 31 30 30 30 29 28 28 27 28 29 27 28 27 27 27 27
49 49 48 49 48 48 44 41 37 35 33 33 33 31 31 30 29 29 29 28 27 27 26 26 26 28 27 26 25 26 27 26
50 51 49 46 44 39 36 37 35 34 33 32 32 30 29 27 27 28 27 26 25 25 22 21 22 26 25 25 24 24 24 26
45 44 43 42 40 34 33 33 33 34 34 33 32 29 28 27 26 26 26 25 25 23 22 20 18 22 24 24 23 21 23 24
40 40 42 40 34 33 33 32 34 32 31 30 29 28 28 26 26 23 22 22 20 19 20 19 18 17 23 24 22 22 22 22
38 39 40 34 33 32 32 33 30 29 27 25 24 25 24 22 21 20 19 17 16 16 17 20 19 19 21 24 25 25 21 21
36 35 36 31 32 31 33 29 26 24 22 22 21 22 21 19 18 17 17 17 18 18 18 20 22 20 23 24 25 25 23 24
30 29 29 29 29 32 28 26 23 22 20 19 18 19 17 19 20 18 19 17 18 19 19 20 20 20 21 20 21 23 24 25
29 29 30 29 29 28 25 23 22 22 20 20 19 17 18 18 19 19 20 21 19 19 19 17 17 20 23 22 21 21 23 22
27 27 29 28 27 25 23 22 22 21 21 22 21 19 20 19 18 23 24 23 23 23 19 19 22 24 25 26 26 26 22 14
27 27 25 24 23 19 18 18 18 23 22 22 19 20 19 18 18 16 21 23 23 24 24 24 24 24 25 24 25 23 15 9
24 20 20 17 15 15 15 15 13 19 14 20 18 19 18 17 17 16 14 13 14 19 18 19 20 20 21 23 22 13 11 6
15 12 11 11 7 9 9 11 13 15 16 15 16 15 14 14 13 12 11 10 10 10 12 13 16 17 18 20 11 8 5 4